Location: 5810 Zion Rd, Cleves, OH 45002, USA
(39.1922°N, 84.7113°W)
Time: 17:51:27
(UTC-05:00)

Vanguard 3 - Pass Details

Date: 21 December 2019
Orbit: 508 x 3263 km, 33.3° (Epoch: 17 January)

Event Time Altitude Azimuth Distance (km) Brightness Sun altitude
Rises 07:02:13 0° 255° (WSW) 2,852 - -9.9°
Exits shadow 07:03:19 - 252° (WSW) 2,428 9.1 -9.7°
Reaches altitude 10° 07:04:11 10° 249° (WSW) 2,102 8.9 -9.6°
Maximum altitude 07:08:47 50° 174° (S) 1,126 8.1 -8.8°
Drops below altitude 10° 07:16:22 10° 102° (ESE) 3,434 11.9 -7.4°
Sets 07:20:25 0° 98° (E) 4,888 12.9 -6.7°
